STARLINK-35478, 65917

Orbit data source: Space-Track

STARLINK-35478, 65917 is a payload satellite owned by SpaceX/Seattle (US) in LEO that was launched on Wed, 08 Oct 2025 UTC via an FALCON 9 launch vehicle from the Air Force Western Test Range (AFWTR). Payload-class satellites include a variety of spacecraft equipped with specific instruments for various scientific and technological missions. These include communications satellites like Starlink; space stations such as the ISS; scientific satellites like the Hubble; Earth observation satellites from companies like Planet Labs, Umbra, and HawkEye 360; GPS; miniature CubeSats for education and research; and military/defense satellites.

Loading next visibility...
Identifier
65917, 2025-225H
Orbit
LEO
Country
Flag of USUS
Related business
Manufacturer
SpaceX/Seattle
Mission
Operational Commercial Communications
Bus & Motor
STARLINK V2MO, Unknown motor
Mass
575 kg wet, ~530 kg dry
Launch date (UTC)
2025-10-08 (8 months ago)
Launch vehicle
FALCON 9
Launch site
Air Force Western Test Range (AFWTR)
Object type
Payload
Rocket body
Debris
Shape & HBR
Box + 2 Pan, 17.7 m
Radar Cross Section
36.964 m², Large (>1 m²)

Expand to show TLE details & history
Last TLE update: 9 hours ago

TLE from 9 hours ago
0 STARLINK-35478
1 65917U 25225H   26151.35791632  .00042189  00000-0  14284-2 0  9990
2 65917  53.1590 141.7880 0001599  63.4218 296.6946 15.30201820 37060
Epoch: 2026-05-31T08:35Z
TLE epoch observation values (Epoch: 2026-05-31T08:35:23.970Z)
Latitude
-0.00004°
Longitude
124.07735°
Altitude
475.617 km
Speed
7.629 km/s
True Right ascension
09h 27m 09s
True Declination
0° 00' 00"
Sunlit
Object was in daylight at epoch
Visualization orbit readout
Latitude
Unknown
Longitude
Unknown
Altitude
Unknown
Speed
Unknown
Apparent Right ascension
Unknown
Apparent Declination
Unknown
Sunlit
N/A
Visualization observer readout
Local Sidereal Time
03:18:24
Azimuth
Unknown
Elevation
Unknown
Doppler factor
Unknown
Orbital elements
Apogee altitude
476.562 km
Perigee altitude
474.37 km
Semi-major axis
6,853.603 km
Eccentricity
0.00016
Inclination
53.159°
RAAN
141.788°
Arg. of periapsis
63.4218°
True anomaly
296.67823°
Mean anomaly
296.6946°
Eccentric anomaly
296.68641°
Mean motion
3.82529 °/min
Orbital period
94.11 mins
BSTAR
0.0014284
Loading maneuver chart data...
Computing Atmospheric mass density...
Loading historical data...
Loading historical data...
Loading historical data...
Loading historical data...
Loading historical data...
Loading historical data...
Loading historical data...

Documentation

Showing up to 5 results
|